Effective Sunday, March 17, 2024, the National Weather Service National Data Buoy Center will discontinue its Dial-A-Buoy Interactive Voice Response system. For more information, see Service Change Notice 24-06 (PDF).

Station ELXC1 - Caspian Weather Station, Elkhorn Slough Reserve, CA Image indicating link to RSS feed of recent meteorological observations for station ELXC1


Conditions at ELXC1 as of
(10:45 pm PST on 02/22/2024)
0645 GMT on 02/23/2024:
     

Click on the graph icon in the table below to see a time series plot of the last five days of that observation.

5-day plot - Wind Direction Wind Direction (WDIR): SE ( 140 deg true )
5-day plot - Wind Speed Wind Speed (WSPD): 1.9 kts
5-day plot - Atmospheric Pressure Atmospheric Pressure (PRES):30.21 in
5-day plot - Air Temperature Air Temperature (ATMP): 48.0 °F
5-day plot - Dew Point Dew Point (DEWP): 46.8 °F
5-day plot -  Wind Speed, Wind Gust and Atmospheric Pressure Combined plot of Wind Speed, Gust, and Air Pressure
Previous observations
TIME
(PST)
5-day plot - Wind Direction
WDIR
 
5-day plot - Wind Speed
WSPD
kts
5-day plot - Wind Gust
GST
kts
5-day plot - Wave Height
WVHT
ft
5-day plot - Dominant Wave Period
DPD
sec
5-day plot - Average Wave Period
APD
sec
5-day plot - Mean Wave Direction
MWD
 
5-day plot - Atmospheric Pressure
PRES
in
5-day plot - Pressure Tendency
PTDY
in
5-day plot - Air Temperature
ATMP
°F
5-day plot - Water Temperature
WTMP
°F
5-day plot - Dew Point
DEWP
°F
5-day plot - Salinity
SAL
psu
5-day plot - Visibility
VIS
nmi
5-day plot - Tide (above MLLW)
TIDE
ft
2024-02-22 10:30 pm SE 1.9-----30.21- 48.0- 46.8---
2024-02-22 10:15 pm- 0.0-----30.21- 48.2- 46.6---
2024-02-22 10:00 pm- 0.0-----30.21+0.03 49.3- 47.7---
2024-02-22 09:45 pm SE 1.9-----30.21- 48.9- 47.3---
2024-02-22 09:30 pmSSE 1.0-----30.21- 48.6- 46.6---
2024-02-22 09:15 pm E 1.0-----30.21- 50.0- 48.0---
2024-02-22 09:00 pm- 0.0-----30.21+0.03 50.4- 48.4---
2024-02-22 08:45 pm- 0.0-----30.21- 50.4- 48.2---
2024-02-22 08:30 pm SE 1.0-----30.21- 51.3- 48.7---
2024-02-22 08:15 pmESE 1.9-----30.21- 51.3- 48.7---
2024-02-22 08:00 pmESE 1.0-----30.21+0.03 52.0- 49.5---
2024-02-22 07:45 pmESE 1.0-----30.21- 52.3- 49.5---
2024-02-22 07:30 pm- 0.0-----30.21- 52.9- 49.8---
2024-02-22 07:15 pm- 0.0-----30.21- 53.8- 50.4---
2024-02-22 07:00 pm- 0.0-----30.18+0.00 54.1- 50.4---
2024-02-22 06:45 pm N 1.9-----30.18- 54.3- 50.4---
2024-02-22 06:30 pmNNW 1.0-----30.18- 54.5- 50.2---
2024-02-22 06:15 pm NW 1.9-----30.18- 54.9- 49.8---
2024-02-22 06:00 pmWNW 2.9-----30.18-0.03 55.8- 49.8---
2024-02-22 05:45 pmWNW 2.9-----30.18- 57.2- 49.8---
2024-02-22 05:30 pmWNW 1.9-----30.18- 58.6- 49.5---
2024-02-22 05:15 pmWNW 1.0-----30.18- 59.4- 49.3---
2024-02-22 05:00 pm NW 1.9-----30.18-0.03 59.7- 50.0---
2024-02-22 04:45 pm NW 1.9-----30.18- 59.7- 49.6---
2024-02-22 04:30 pmWNW 2.9-----30.18- 60.1- 49.6---
2024-02-22 04:15 pmWNW 1.9-----30.18- 60.3- 49.1---
2024-02-22 04:00 pm NW 2.9-----30.18-0.06 59.9- 49.8---
2024-02-22 03:45 pm NW 4.1-----30.18- 59.7- 49.6---
2024-02-22 03:30 pm NW 5.1-----30.21- 59.4- 50.2---
2024-02-22 03:15 pm NW 6.0-----30.21- 59.7- 50.9---
2024-02-22 03:00 pmWNW 7.0-----30.21-0.06 59.7- 50.9---
2024-02-22 02:45 pmWNW 6.0-----30.21- 60.8- 50.4---
2024-02-22 02:30 pmWNW 6.0-----30.21- 61.3- 50.0---
2024-02-22 02:15 pmWNW 6.0-----30.21- 61.9- 46.2---
2024-02-22 02:00 pmWNW 5.1-----30.21-0.06 61.9- 45.9---
2024-02-22 01:45 pmWNW 5.1-----30.24- 61.5- 45.9---
2024-02-22 01:30 pmWNW 5.1-----30.24- 61.5- 46.8---
2024-02-22 01:15 pmWNW 6.0-----30.24- 61.3- 47.5---
2024-02-22 01:00 pmWNW 7.0-----30.24-0.03 61.2- 49.1---
2024-02-22 12:45 pmWNW 5.1-----30.24- 62.2- 50.5---
2024-02-22 12:30 pmWNW 2.9-----30.24- 62.2- 49.3---
2024-02-22 12:15 pm W 2.9-----30.24- 62.4- 48.9---
2024-02-22 12:00 pmWSW 2.9-----30.27+0.00 63.0- 49.5---
2024-02-22 11:45 am SW 2.9-----30.27- 62.1- 49.5---
2024-02-22 11:30 amWSW 2.9-----30.27- 59.7- 48.9---
2024-02-22 11:15 amWSW 2.9-----30.27- 59.7- 48.9---
2024-02-22 11:00 amWSW 2.9-----30.27+0.03 59.2- 48.7---
2024-02-22 10:45 amWSW 4.1-----30.27- 59.0- 48.2---
2024-02-22 10:30 amWSW 4.1-----30.27- 58.1- 48.9---
2024-02-22 10:15 amNNE 2.9-----30.27- 57.7- 48.2---
2024-02-22 10:00 am SE 1.9-----30.27+0.03 58.1- 48.2---
2024-02-22 09:45 am S 1.9-----30.27- 57.0- 48.6---
2024-02-22 09:30 am SE 1.9-----30.27- 55.0- 48.4---
2024-02-22 09:15 am S 2.9-----30.27- 53.8- 48.2---
2024-02-22 09:00 am S 4.1-----30.27+0.06 52.2- 47.8---
2024-02-22 08:45 am S 2.9-----30.27- 51.1- 48.0---
2024-02-22 08:30 am S 2.9-----30.24- 50.2- 48.0---
2024-02-22 08:15 am S 2.9-----30.24- 48.7- 47.1---
2024-02-22 08:00 amSSW 1.9-----30.24+0.03 47.8- 46.6---
2024-02-22 07:45 amSSE 1.9-----30.24- 47.1- 46.0---
2024-02-22 07:30 amSSE 1.0-----30.24- 45.9- 44.8---
2024-02-22 07:15 am- 0.0-----30.24- 44.8- 43.7---
2024-02-22 07:00 amSSE 1.9-----30.24+0.06 44.4- 43.3---
2024-02-22 06:45 am S 1.0-----30.24- 44.8- 43.7---
2024-02-22 06:30 am SE 1.9-----30.21- 44.8- 43.7---
2024-02-22 06:15 amSSE 1.9-----30.21- 44.4- 43.3---
2024-02-22 06:00 amESE 1.0-----30.21+0.00 44.6- 43.5---
2024-02-22 05:45 am SE 1.9-----30.21- 44.4- 43.2---
2024-02-22 05:30 amSSE 1.0-----30.21- 45.0- 43.7---
2024-02-22 05:15 am E 1.0-----30.21- 45.5- 44.2---
2024-02-22 05:00 am E 1.9-----30.21+0.00 45.1- 43.9---
2024-02-22 04:45 am S 1.0-----30.21- 45.7- 44.4---
2024-02-22 04:30 amSSE 1.9-----30.21- 46.6- 45.3---
2024-02-22 04:15 amESE 2.9-----30.21- 46.6- 45.5---
2024-02-22 04:00 am SE 1.9-----30.18-0.06 47.1- 46.0---
2024-02-22 03:45 am E 1.9-----30.18- 47.5- 46.4---
2024-02-22 03:30 am E 2.9-----30.18- 47.3- 46.6---
2024-02-22 03:15 am E 1.9-----30.18- 47.1- 46.4---
2024-02-22 03:00 am E 2.9-----30.21-0.03 47.3- 46.8---
2024-02-22 02:45 amENE 2.9-----30.21- 46.0- 45.5---
2024-02-22 02:30 am NE 4.1-----30.21- 46.2- 45.5---
2024-02-22 02:15 am NE 1.9-----30.21- 46.8- 46.0---
2024-02-22 02:00 am- 0.0-----30.21-0.03 46.8- 46.0---
2024-02-22 01:45 amESE 2.9-----30.21- 47.1- 46.4---
2024-02-22 01:30 am E 2.9-----30.24- 46.6- 45.9---
2024-02-22 01:15 am SE 2.9-----30.24- 45.7- 45.0---
2024-02-22 01:00 amSSE 1.9-----30.24+0.00 45.7- 44.6---
2024-02-22 12:45 am- 0.0-----30.24- 46.6- 45.5---
2024-02-22 12:30 amENE 2.9-----30.24- 47.5- 46.4---
2024-02-22 12:15 amNNE 2.9-----30.24- 47.1- 46.0---
2024-02-22 12:00 amSSE 1.0-----30.24+0.00 47.1- 45.9---